Location: The Saddle
(36.8333°N, 80.3417°W)
Time: 08:31:37
(UTC-05:00)

Vanguard 2 Rocket - Pass Details

Date: 11 December 2023
Orbit: 555 x 3309 km, 32.9° (Epoch: 02 March)

Event Time Altitude Azimuth Distance (km) Brightness Sun altitude
Rises 10:35:53 0° 201° (SSW) 4,459 11.0 25.8°
Reaches altitude 10° 10:39:00 10° 189° (S) 3,841 11.1 26.1°
Maximum altitude 10:47:43 28° 135° (SE) 3,483 11.5 26.7°
Drops below altitude 10° 11:00:27 10° 85° (E) 5,750 11.2 27.7°
Sets 11:06:28 0° 76° (ENE) 7,069 11.5 28.0°
